Regional Weather Roundup
Issued by NWS

Home | Current Version | Previous Version | Text Only | Print | Product List | Glossary On
Versions: 1 2 3 4 5 6 7 8 9 10 11 12 13 14 15 16 17 18 19 20 21 22 23 24 25 26 27 28 29 30 31 32 33 34 35 36 37 38 39 40 41 42 43 44 45 46 47 48 49 50
000
ASCA44 KEWX 011520
RWRMX

LATIN AMERICA AND CARIBBEAN REGIONAL WEATHER ROUNDUP
NATIONAL WEATHER SERVICE AUSTIN/SAN ANTONIO TX
1000 AM CDT WED JUL 01 2015

NOTE: "FAIR" INDICATED FEW OR NO CLOUDS BELOW 12,000 FEET WITH NO
SIGNIFICANT WEATHER AND/OR OBSTRUCTIONS TO VISIBILITY.

BAJA CALIFORNIA

CITY           SKY/WX    TMP DP  RH WIND       PRES   REMARKS
LORETO           N/A    N/A N/A N/A MISG        N/A
LA PAZ         SUNNY     77  64  65 S12       29.91
MEXICALI       CLOUDY    82  72  69 E15       29.87R
S.J. DEL CABO  SUNNY     84  72  65 N7        29.89
TIJUANA        CLOUDY    72  63  73 E3        29.95R

NORTHWESTERN MEXICO

CITY           SKY/WX    TMP DP  RH WIND       PRES   REMARKS
CULIACAN       MOSUNNY   86  77  74 CALM      29.92R HX  97
DURANGO        CLOUDY    63  59  88 CALM      30.28R
GUAYMAS        MOSUNNY   86  75  70 CALM      29.85R HX  95
HERMOSILLO     PTSUNNY   82  72  69 N7        29.94R
CD. JUAREZ     MOSUNNY   79  46  31 E7        30.08S
LOS MOCHIS     MOSUNNY   86  72  62 E5        29.89  HX  92
OBREGON        MOSUNNY   81  70  69 E8        29.87R

NORTHEASTERN MEXICO

CITY           SKY/WX    TMP DP  RH WIND       PRES   REMARKS
CHIHUAHUA      PTSUNNY   73  50  43 CALM      30.17S
MATAMOROS      LGT RAIN  73  73 100 SE16      30.07R FOG
MONCLOVA       PTSUNNY   75  66  73 CALM      30.03R
MONTERREY      PTSUNNY   73  68  83 N5        30.02R
NUEVO LAREDO   MOSUNNY   82  70  65 S9        30.02R
PIEDRAS NEGRAS MOSUNNY   77  72  83 SE5       30.06R
REYNOSA        DRIZZLE   70  66  88 S7        30.03F FOG
SALTILLO       CLOUDY    70  57  64 CALM      30.20S
TORREON        MOSUNNY   79  63  57 E9        30.12S
CD. VICTORIA   CLOUDY    73  73 100 N3        30.03R

WESTERN MEXICO

CITY           SKY/WX    TMP DP  RH WIND       PRES   REMARKS
AGUASCALIENTES PTSUNNY   59  52  77 W6        30.31R
COLIMA         SUNNY     81  66  61 CALM      30.03R
DEL BAJIO      PTSUNNY   66  59  77 CALM      30.32R
GUADALAJARA    MOSUNNY   70  59  68 CALM      30.21R
MANZANILLO       N/A    N/A N/A N/A MISG        N/A
MAZATLAN       MOSUNNY   81  70  69 SE7       29.88S
P. VALLARTA    SUNNY     82  75  78 CALM      29.89S
URUAPAN        SUNNY     68  61  77 CALM      30.22
ZACATECAS      PTSUNNY   61  55  82 W6        30.30R

CENTRAL MEXICO

CITY           SKY/WX    TMP DP  RH WIND       PRES   REMARKS
CUERNAVACA     PTSUNNY   70  63  78 CALM      30.19S
MEXICO CITY    CLOUDY    61  54  77 N3        30.36R
MORELIA        MOSUNNY   68  59  73 CALM      30.28R
POZA RICA      CLOUDY    77  73  88 NW7       30.00R
PUEBLA         PTSUNNY   57  55  94 NW5       30.36S
QUERETARO      CLOUDY    64  57  77 SW2       30.34S HAZE
S. LUIS POTOSI CLOUDY    63  61  94 CALM      30.26R
TAMPICO        CLOUDY    73  72  94 SE16      29.99R
TOLUCA         PTSUNNY   55  50  82 CALM      30.43R

SOUTHERN MEXICO

CITY           SKY/WX    TMP DP  RH WIND       PRES   REMARKS
ACAPULCO       PTSUNNY   86  73  66 N7        29.89R HX  93
B. DE HUATULCO PTSUNNY   84  68  58 CALM      29.96R
OAXACA         PTSUNNY   66  57  72 N3        30.25R
P. ESCONDIDO   PTSUNNY   86  72  62 CALM      29.98R HX  92
VERACRUZ       PTSUNNY   84  77  79 E6        29.96R HX  94
ZIHUATANEJO    MOSUNNY   88  73  62 CALM      29.90R HX  96

YUCATAN PENINSULA

CITY           SKY/WX    TMP DP  RH WIND       PRES   REMARKS
CAMPECHE       MOSUNNY   82  75  78 E16       30.00R
CANCUN         PTSUNNY   88  77  70 N12       30.06S HX 100
CHETUMAL       CLOUDY    84  73  70 E7        30.02R HX  91
CD. DEL CARMEN MOSUNNY   82  73  74 SE23      29.99R
COZUMEL        MOSUNNY   81  77  89 E6        30.05S
MERIDA         PTSUNNY   84  77  79 E9        30.06R HX  94
MINATITLAN     MOSUNNY   82  68  61 N23       29.89R
TAPACHULA      MOSUNNY   88  77  70 CALM      29.89R HX 100
TUX. GUTIERREZ MOSUNNY   77  66  69 CALM      30.01R
VILLAHERMOSA   MOSUNNY   84  72  65 E18       29.96R

CENTRAL AMERICA

CITY           SKY/WX    TMP DP  RH WIND       PRES   REMARKS
BELIZE CITY    MOSUNNY   86  79  79 E13       30.00R HX  99
MANAGUA        MOSUNNY   86  72  62 E23       29.89S HX  92

CARIBBEAN

CITY           SKY/WX    TMP DP  RH WIND       PRES   REMARKS
ARUBA          MOSUNNY   84  77  79 E17G29    29.97S HX  94
CURACAO        MOSUNNY   88  75  66 SE22      30.00S HX  97
KINGSTON       MOSUNNY   90  72  55 SE21      30.00S HX  96
NASSAU         PTSUNNY   88  77  70 SE12      30.17S HX 100
SAN JUAN       MOSUNNY   84  75  74 E17       30.12F HX  92
SANTO DOMINGO  MOSUNNY   86  73  66 E7        30.09S HX  93
ST. CROIX      MOSUNNY   88  73  62 E24G33    30.10F HX  96
ST. KITTS      MOSUNNY   86  75  70 NE20      30.12S HX  95
ST. MAARTEN    PTSUNNY   86  73  66 E16       30.12S HX  93
ST. THOMAS     MOSUNNY   88  73  62 E16       30.10  HX  96

$$



USA.gov is the U.S. government's official web portal to all federal, state and local government web resources and services.